RH
29 27 24 22 22 21 21 21 21 21 23 23 24 24 24 24 24 24 23 22 23 24 25 26 27 26 24 24 25 26 28 29 31 32 32 31 29 29 31 32 32 32 31 31 32 35 36 36 37 37 38 38 38 37 37 40 40 35 32 32 33 33 34 35 34 30 29 29 29 27 26 27 29 31 32 33 35 35 34 36 39 41 41 42 43
29 26 24 22 22 21 21 21 21 22 22 24 24 25 25 25 24 24 24 24 23 24 24 25 26 26 25 25 26 26 26 26 27 27 28 28 27 27 28 30 30 31 33 32 32 33 34 34 33 33 34 34 34 34 34 38 40 38 35 34 34 35 36 36 36 33 30 28 27 26 25 25 26 26 26 28 33 36 36 38 40 42 44 45 46
28 25 24 23 21 21 21 21 21 22 22 22 23 24 24 24 25 25 25 25 24 24 24 24 25 25 24 24 26 28 29 27 25 24 24 26 26 25 26 26 25 26 29 31 31 31 31 31 31 32 32 31 32 31 31 35 38 38 37 36 36 37 38 38 37 35 32 28 24 23 23 23 24 24 24 29 35 37 37 37 39 42 46 48 49
30 26 23 21 21 21 20 20 21 21 21 22 22 24 25 25 25 25 26 26 25 23 23 24 24 24 24 24 26 27 29 28 26 23 21 22 23 23 24 23 23 24 25 27 28 29 29 28 29 30 30 31 32 32 30 31 33 35 35 35 35 35 36 37 36 36 34 29 23 22 21 21 21 21 25 33 39 39 37 39 42 45 47 48 49
35 28 23 21 21 21 20 20 20 20 21 22 22 24 27 27 26 26 27 27 25 23 23 23 25 24 23 24 25 26 27 26 25 23 21 20 20 21 21 22 22 23 23 24 25 26 27 27 27 28 28 30 31 31 30 29 30 32 33 34 35 35 35 34 33 32 32 27 22 20 19 19 20 22 31 42 46 43 41 42 44 47 48 48 49
42 35 28 23 22 21 19 19 19 19 20 21 22 24 27 29 28 26 26 26 25 24 23 23 24 24 23 23 23 24 25 24 23 22 21 19 18 19 20 20 21 22 22 22 23 24 24 25 26 27 27 27 27 28 29 29 31 31 31 31 33 34 35 34 32 29 27 23 20 18 19 22 26 31 40 51 53 48 46 45 47 49 50 50 51
48 42 36 29 25 22 19 18 19 19 19 21 23 25 27 28 27 26 25 25 26 26 24 23 24 24 22 22 23 24 24 24 23 21 21 20 19 19 19 19 20 21 21 22 22 22 22 22 24 26 26 25 25 26 28 30 31 30 28 29 29 30 31 31 30 28 25 21 20 21 24 28 33 38 45 53 53 49 48 49 52 54 54 53 54
51 48 42 35 29 25 21 19 20 21 21 22 23 25 25 26 26 26 25 25 27 27 26 25 24 24 24 22 23 24 24 24 23 21 20 20 19 20 19 18 19 20 21 21 21 20 19 19 20 22 24 24 23 23 24 27 29 29 28 28 28 28 29 28 28 26 23 22 23 25 30 33 35 39 45 51 52 51 52 52 53 56 57 56 58
52 51 48 42 34 31 27 24 22 22 22 21 22 23 24 25 25 25 25 26 27 27 28 27 26 25 25 24 23 24 24 24 23 20 18 18 19 20 21 20 20 20 21 21 20 19 18 19 21 23 25 26 24 22 22 23 25 27 27 29 29 29 29 29 27 25 23 23 25 29 32 34 35 39 45 51 53 54 55 54 52 54 57 58 59
50 51 51 48 42 37 34 30 26 24 23 22 22 23 24 24 24 24 24 25 27 27 28 28 27 26 25 25 25 25 25 24 21 19 17 16 17 19 20 20 21 22 22 22 21 19 18 18 21 24 26 27 26 24 23 24 24 23 23 26 29 28 27 26 25 24 24 26 28 31 34 35 36 40 47 50 52 53 56 56 54 53 54 55 55
49 51 52 51 47 43 39 35 31 27 24 23 22 22 23 24 24 24 23 23 26 27 27 27 27 26 25 26 25 25 25 24 21 17 17 16 16 17 17 18 20 22 24 24 24 22 20 18 18 20 23 25 25 24 25 25 24 20 19 20 22 22 22 23 23 24 26 27 29 33 36 36 37 41 45 48 50 52 54 56 55 52 50 52 53
49 50 53 53 50 46 43 39 36 32 27 25 23 22 23 24 24 24 23 23 23 25 27 27 26 26 25 27 27 24 23 23 21 18 17 16 15 15 15 16 19 22 23 25 25 24 22 21 19 19 21 22 23 22 23 23 20 17 16 16 17 18 20 22 23 25 26 27 29 31 33 34 36 37 40 42 45 48 49 52 53 51 50 50 51
50 50 51 53 52 49 46 41 38 35 31 28 25 23 23 24 24 24 23 23 23 24 25 25 26 25 25 27 27 26 24 23 22 19 17 16 16 15 14 15 17 20 21 23 24 24 22 20 19 20 20 22 23 22 22 21 18 15 15 15 15 17 20 23 25 26 26 26 28 29 30 32 35 36 38 40 42 44 46 50 53 54 52 51 51
49 49 50 52 52 51 48 44 41 38 35 31 28 26 24 24 24 24 23 23 23 23 24 24 24 25 24 24 25 25 25 25 23 21 18 16 15 15 15 14 16 19 21 22 23 24 23 22 19 18 18 18 20 22 23 21 18 15 14 15 15 17 20 23 25 26 27 27 28 29 29 32 36 39 42 45 45 45 47 50 54 56 55 53 51
48 47 48 50 51 51 50 47 45 42 39 35 32 28 26 24 24 24 23 24 23 23 24 24 24 24 23 23 23 23 24 25 24 22 20 17 15 16 15 15 16 19 21 23 23 23 24 24 23 20 18 16 16 18 20 20 18 16 14 15 16 18 20 23 25 27 27 28 28 29 31 34 39 43 46 48 48 47 48 49 51 53 54 53 51
50 46 46 48 49 51 50 49 48 46 43 40 37 33 30 27 24 24 23 23 24 23 23 24 24 24 23 23 23 23 23 23 23 23 21 19 17 17 16 16 16 18 21 25 26 25 25 25 25 23 21 18 16 15 16 18 18 18 17 16 17 18 20 23 25 27 27 28 29 30 34 39 44 47 50 50 50 50 49 48 49 50 51 52 51
50 45 45 47 47 50 51 50 50 50 47 44 41 39 36 32 28 26 25 24 25 25 24 25 25 25 24 23 23 22 22 22 22 22 22 20 20 19 18 17 15 15 18 21 24 26 27 25 24 24 22 20 18 17 16 17 18 19 19 19 20 21 22 23 26 28 28 29 31 34 39 45 48 50 51 52 51 51 50 49 48 48 49 51 52
48 44 44 46 46 48 50 51 51 52 50 48 44 43 41 38 33 30 27 26 26 26 26 25 25 25 24 23 22 20 21 21 21 22 21 20 21 21 21 19 16 13 14 17 19 23 24 23 23 23 22 21 20 19 18 18 19 19 19 21 22 22 22 23 26 28 29 31 35 39 43 46 48 51 51 51 50 49 49 48 46 45 47 49 50
46 42 44 46 46 48 50 51 52 53 52 51 49 47 45 42 39 35 30 29 29 28 28 26 25 24 24 23 22 20 19 21 21 20 20 19 20 21 22 21 18 14 12 14 16 19 20 20 21 21 21 21 21 21 20 19 18 18 19 22 22 22 22 23 26 28 30 32 37 40 42 44 47 49 50 49 48 47 47 46 44 43 45 47 49
41 39 43 46 47 48 50 52 53 54 54 54 53 50 48 46 44 40 36 33 31 29 29 29 28 26 25 23 22 20 18 19 19 19 18 18 19 20 21 21 19 15 12 13 16 17 18 20 21 21 20 20 20 21 21 21 19 19 20 21 22 21 23 25 29 31 32 34 37 39 41 43 46 48 47 47 47 46 45 44 44 44 45 47 49
37 36 40 45 46 48 51 53 54 55 56 57 56 54 51 50 48 45 41 38 33 30 29 29 29 28 26 24 24 21 19 18 18 18 17 17 18 19 19 18 16 14 13 15 17 18 18 20 21 21 19 18 17 18 19 20 20 20 20 20 22 23 25 28 31 33 35 37 38 40 41 44 47 49 49 48 47 46 46 45 44 43 46 49 51
36 35 38 42 44 47 50 52 54 55 56 57 57 54 51 51 51 49 46 42 37 31 29 29 28 27 26 25 25 23 22 21 20 20 19 18 18 18 17 16 15 15 16 17 19 19 20 21 21 20 18 15 14 14 15 17 19 20 20 20 22 26 28 30 33 36 38 40 40 41 43 45 46 47 47 47 47 47 45 42 41 43 47 50 50
36 36 37 40 43 46 49 51 53 54 56 57 58 55 52 53 53 52 49 44 39 34 30 28 28 27 26 25 25 24 24 24 24 23 22 21 19 18 18 17 16 16 18 20 21 21 22 23 23 22 19 15 13 13 13 15 18 21 21 22 24 27 29 31 35 37 38 38 40 42 44 44 44 44 44 47 49 47 44 42 45 48 50 49 47
38 37 37 38 42 45 48 51 53 54 55 57 58 55 51 52 55 54 52 47 40 34 30 29 29 28 26 25 25 24 24 25 25 24 24 23 22 20 19 19 18 19 21 23 24 24 26 28 28 26 23 20 17 17 18 18 21 24 26 26 28 29 29 31 33 35 36 37 38 41 43 43 44 45 46 49 50 48 47 48 50 50 48 46 44
38 38 38 39 41 44 47 50 51 53 54 56 57 55 51 52 55 56 54 49 42 34 29 28 29 29 27 25 24 24 24 24 24 24 24 24 22 21 20 19 20 22 24 25 26 30 33 35 34 33 31 29 27 26 26 26 27 29 31 31 31 30 30 31 33 35 36 37 39 41 42 43 45 47 49 51 51 51 52 51 48 47 46 45 44
37 37 38 39 40 42 45 48 49 51 53 54 56 55 52 53 56 56 54 50 41 33 29 28 30 30 28 26 24 23 23 23 22 22 23 23 21 21 21 21 23 26 28 29 30 33 36 38 38 38 37 37 37 36 34 34 35 36 38 38 37 36 35 36 37 39 39 40 43 45 46 47 49 51 53 54 54 53 51 47 44 45 46 45 43
36 35 36 38 40 40 43 46 47 49 51 51 51 52 51 53 55 55 51 46 39 33 30 30 30 30 28 26 23 22 22 22 21 22 22 20 19 20 22 23 25 29 32 35 35 35 35 36 37 38 40 41 43 42 42 41 42 42 42 42 41 41 40 39 40 41 41 43 45 47 48 52 54 56 57 57 54 50 46 43 43 45 45 43 40
34 34 35 37 38 38 41 44 45 48 50 48 47 48 50 52 52 47 40 35 33 32 30 29 28 27 25 23 22 21 21 21 21 19 17 16 17 20 23 25 27 30 34 37 38 36 35 36 37 39 41 43 44 45 46 47 46 46 45 45 45 45 45 44 45 47 49 52 54 55 57 61 64 64 64 61 56 50 46 47 48 47 44 41 39
34 33 35 35 35 36 39 42 44 47 49 47 46 47 48 49 48 40 31 28 28 28 26 24 22 22 23 22 21 21 22 21 21 21 20 20 22 26 29 32 33 35 38 41 41 39 39 40 42 44 45 47 48 50 50 51 51 51 51 52 52 52 51 52 55 59 62 65 68 70 73 75 74 71 69 67 63 58 55 54 53 49 45 42 41
34 33 33 34 34 35 37 40 42 46 47 46 45 45 47 49 47 39 33 30 29 26 24 23 22 23 25 25 24 24 24 24 25 27 29 29 30 32 35 38 40 42 44 47 47 45 46 47 49 50 52 53 54 55 55 55 56 57 59 61 61 62 61 62 66 70 72 74 76 78 78 77 73 67 64 63 61 61 60 58 54 50 45 42 43
38 35 32 31 32 34 36 38 41 44 45 45 43 43 47 50 47 42 39 38 36 33 31 31 30 30 30 29 28 29 29 28 29 31 32 34 35 37 39 41 44 47 50 52 52 52 53 53 55 56 58 59 59 59 60 60 59 61 63 65 67 69 67 68 71 73 71 71 74 75 73 72 68 62 57 54 51 53 57 57 54 51 48 47 49
37 34 31 31 32 33 35 38 41 43 43 42 41 43 48 49 46 45 46 45 42 40 38 37 36 36 34 33 32 32 33 33 35 34 35 37 40 42 44 46 48 52 55 55 56 56 56 57 59 61 62 62 62 62 63 63 62 61 63 65 68 69 67 67 72 71 64 62 67 70 68 65 59 55 54 53 50 50 53 54 55 56 56 55 54
41 38 35 35 37 37 38 40 41 42 41 41 40 43 46 45 43 46 48 46 44 42 40 39 39 39 38 38 38 37 37 37 38 39 40 43 45 47 50 52 54 56 57 57 58 58 59 61 62 63 63 63 62 61 62 62 60 60 62 64 65 66 65 66 69 65 58 58 64 68 67 63 58 55 56 57 56 55 55 54 56 60 59 54 47
50 51 48 46 48 49 47 44 41 41 40 39 40 43 44 42 41 45 48 48 46 43 41 40 40 40 41 43 43 42 43 44 45 47 49 51 52 53 56 58 59 60 60 60 59 60 61 63 64 64 63 62 61 59 60 59 58 61 64 65 64 64 64 64 65 63 60 62 66 65 62 60 59 61 62 61 60 60 58 55 55 56 54 49 41
51 54 54 54 55 58 58 52 45 41 39 39 41 43 43 40 41 45 48 50 49 48 44 42 42 42 43 44 46 47 48 51 53 55 57 58 58 58 59 60 59 59 61 62 61 61 62 63 64 64 62 60 59 58 58 58 59 62 63 63 64 64 60 58 60 65 68 70 69 63 59 58 60 64 66 65 64 62 58 55 53 50 47 44 40
51 51 54 58 59 62 65 63 53 43 39 41 44 44 42 42 44 47 50 52 52 51 48 46 44 45 46 46 49 50 52 54 57 57 59 60 60 61 63 64 63 63 66 66 63 62 61 60 59 59 58 57 57 57 58 60 61 61 61 63 64 62 56 54 60 67 71 70 66 63 62 63 64 65 66 67 67 63 56 51 48 45 44 43 41
56 52 54 59 61 63 70 73 63 50 44 44 47 47 44 45 48 50 51 51 51 51 53 52 51 50 50 49 50 52 54 56 57 58 60 62 62 62 65 65 65 66 67 64 60 58 57 56 56 56 56 56 57 57 59 61 61 60 61 64 64 60 56 57 60 63 64 62 62 65 70 71 68 67 66 64 62 57 51 46 45 45 44 43 42
60 54 55 61 63 64 72 78 74 65 55 51 50 51 50 53 55 54 52 51 53 56 60 60 58 56 55 54 54 55 56 57 58 59 60 61 61 61 61 61 62 61 59 56 56 57 56 55 55 55 55 55 56 56 57 59 60 62 65 65 61 56 55 56 57 56 57 58 60 63 66 66 65 65 62 57 52 49 45 44 45 45 44 44 44
58 53 58 66 70 71 75 78 78 75 70 63 58 57 57 58 57 55 53 54 59 62 65 65 64 62 60 60 60 60 60 61 61 61 61 62 62 61 60 61 63 62 59 57 57 58 56 55 54 55 55 55 56 56 58 61 65 68 68 64 56 50 49 50 51 51 52 57 60 61 60 58 58 58 56 52 49 48 47 46 46 46 45 44 43
60 55 57 65 72 76 78 78 77 77 75 70 65 60 58 56 56 56 57 60 63 66 67 68 67 65 64 66 66 64 62 62 62 60 60 61 63 65 66 67 68 67 65 63 61 60 59 58 57 57 56 57 61 65 68 69 70 68 65 60 56 52 50 50 50 52 54 57 59 58 57 56 55 55 53 51 51 51 49 47 46 45 44 44 43
67 61 57 59 65 71 75 76 75 72 69 66 62 57 53 52 54 57 60 61 62 65 66 65 66 67 68 71 71 68 65 64 61 59 57 58 60 64 67 69 70 70 69 68 67 66 65 63 60 58 58 60 65 70 71 69 66 63 60 57 56 55 54 54 55 58 60 61 58 55 53 53 54 54 53 52 53 54 52 49 46 45 44 44 43
69 68 64 62 63 67 72 76 77 74 70 66 63 59 55 55 58 60 60 59 60 62 63 63 65 67 68 68 67 65 64 62 59 57 57 58 59 61 64 67 69 72 72 72 73 71 68 66 64 62 61 63 66 69 70 68 65 60 56 54 55 56 57 58 60 60 57 55 54 54 54 55 55 55 53 53 53 53 50 48 46 45 44 43 43
70 73 72 70 69 71 73 75 76 75 71 69 69 69 67 65 65 64 62 60 61 63 63 63 63 64 64 63 61 59 58 57 56 56 57 57 58 60 63 66 68 71 73 75 74 73 72 71 67 63 62 63 64 66 67 66 63 58 54 56 59 62 60 59 59 58 54 53 56 58 57 56 56 56 55 54 53 51 48 47 46 45 44 44 44
68 71 74 76 78 77 75 73 74 74 72 71 73 76 75 72 69 65 62 62 64 64 63 62 61 60 58 57 55 54 52 50 51 52 53 54 55 57 60 64 67 68 69 70 71 73 73 69 63 61 61 62 62 62 63 61 57 56 56 59 62 63 58 54 54 55 55 56 58 60 59 58 58 58 56 53 51 49 48 47 46 46 45 46 45
68 71 73 75 76 78 78 76 76 77 75 73 74 76 75 73 70 66 62 61 61 60 59 58 57 57 55 53 53 52 50 50 51 51 51 52 55 57 57 60 63 64 64 67 69 69 65 59 56 57 59 59 57 57 57 57 55 55 56 58 61 61 60 57 57 57 57 56 57 57 57 56 56 55 53 50 48 48 48 48 48 49 49 49 48
69 71 72 72 74 77 80 80 80 80 79 76 74 73 71 69 67 64 61 60 59 58 57 55 54 54 54 53 51 51 51 51 51 51 50 52 56 58 58 59 60 61 63 66 65 61 56 53 53 55 55 55 55 55 54 54 55 57 59 59 59 59 58 57 57 57 57 55 54 53 52 50 48 48 48 47 47 47 47 48 48 48 48 48 46
71 70 70 70 72 75 78 80 79 78 79 79 76 72 69 67 66 63 60 60 60 59 57 57 57 57 56 55 55 56 56 56 58 60 62 63 64 63 62 63 65 66 65 64 61 57 55 55 56 57 59 61 60 58 56 57 58 60 59 58 56 57 58 59 59 59 58 55 52 52 51 49 48 49 49 49 50 50 50 50 50 50 49 48 46
73 71 69 68 68 68 73 79 81 78 76 77 76 72 68 67 68 67 64 64 65 63 61 62 62 63 63 64 66 66 64 63 65 69 72 72 72 71 70 69 71 71 67 63 60 60 60 61 61 65 69 70 67 64 63 63 63 63 63 61 61 61 63 63 63 62 59 56 54 54 54 54 55 56 56 55 55 55 55 56 57 55 53 51 48
76 73 71 71 70 67 67 74 80 81 78 76 77 78 78 76 75 75 72 70 69 68 66 65 66 67 69 72 75 77 74 68 66 70 74 75 75 75 75 73 73 72 68 64 63 65 68 71 71 71 72 71 69 67 66 65 65 67 67 65 65 65 65 64 63 61 58 57 56 55 55 57 58 59 59 58 58 58 58 59 57 52 49 46 45
76 73 72 73 75 73 70 71 76 80 79 76 75 80 85 85 83 80 75 71 70 70 68 66 67 70 74 77 80 82 81 75 70 72 75 75 73 75 75 74 73 72 70 69 70 73 77 80 78 74 72 72 70 68 66 66 67 68 68 67 66 65 63 62 60 58 56 55 55 55 55 56 57 57 58 59 59 58 56 51 45 42 40 39 39
74 73 72 71 72 72 73 74 76 78 79 77 76 78 83 87 87 84 78 73 73 72 70 68 70 73 78 83 86 85 84 80 77 78 80 77 76 78 79 76 76 77 77 78 80 82 83 83 79 74 73 74 73 70 67 66 66 66 66 65 63 61 59 57 55 53 51 50 50 50 51 49 49 50 51 50 48 46 42 39 39 40 39 37 38